Flag for China Weather past 2 weeks in Chongqing, Chongqing Municipality, China

Now
72 °F

Sprinkles. Fog.


Feels Like: 69 °F
Forecast: 70 / 86 °F
Wind: 6 mph from South

Location: Chongqing Airport

Current Time: Aug 23, 2014 at 7:33:11 PM

Latest Report: Aug 23, 2014 at 7:00 PM


Visibility: 2 mi

Pressure: 29.83 "Hg

Humidity: 88%

Dew point: 68 °F

Location of ChongqingLocation

Historic Weather in Chongqing — Graph

°F

Chongqing temperature yesterday

Maximum temperature yesterday: 86 °F (at 12:00 AM)
Minimum temperature yesterday: 68 °F (at 10:00 PM)
Average temperature yesterday: 75 °F

Past Weeks' High & Low Weather Summary

 TemperatureHumidityPressure
High97 °F (Aug 8, 6:00 PM)94% (Aug 9, 4:00 PM)29.95 "Hg (Aug 9, 4:00 PM)
Low68 °F (Aug 13, 4:00 AM)26% (Aug 21, 4:00 PM)29.47 "Hg (Aug 8, 6:00 PM)
Average79 °F71%29.76 "Hg
* Reported Aug 8 6:00 PM — Aug 23 6:00 PM, Chongqing, Weather by CustomWeather, © 2014

Note: Actual official high and low records may vary slightly from our data, if they occured in-between our weather recording intervals... More about our weather records

Advertising

Chongqing weather history for previous 24 hours

 ConditionsComfort  
Time TempWeatherWind HumidityBarometerVisibility
6:00 PM
Aug 23
73 °FMore clouds than sun.3 mph83%29.83 "Hg4 mi
5:00 PM73 °FMore clouds than sun.3 mph83%29.83 "HgN/A
4:00 PM75 °FMore clouds than sun.6 mph74%29.83 "HgN/A
3:00 PM73 °FMore clouds than sun.8 mph78%29.86 "HgN/A
2:00 PM73 °FFog.6 mph83%29.86 "Hg3 mi
1:00 PM72 °FLight rain. Fog.6 mph83%29.89 "Hg2 mi
12:00 PM72 °FLight rain. Fog.6 mph83%29.89 "Hg2 mi
11:00 AM70 °FLight rain. Fog.6 mph88%29.89 "Hg2 mi
10:00 AM70 °FLight rain. Fog.6 mph88%29.89 "Hg2 mi
9:00 AM70 °FLight rain. Fog.3 mph88%29.89 "Hg2 mi
8:00 AM70 °FLight rain. Fog.3 mph88%29.89 "Hg2 mi
7:00 AM68 °FLight rain. Fog.3 mph94%29.86 "Hg2 mi
6:00 AM70 °FLight rain. Fog.1 mph88%29.86 "Hg2 mi
5:00 AM70 °FRain. Fog.1 mph88%29.83 "Hg1 mi
4:00 AM70 °FRain. Fog.1 mph88%29.83 "Hg2 mi
3:00 AM70 °FLight rain. Fog.1 mph88%29.86 "Hg2 mi
2:00 AM70 °FRain showers. Fog.1 mph88%29.86 "Hg1 mi
1:00 AM70 °FLight rain. Mostly cloudy.1 mph88%29.89 "Hg2 mi
12:00 AM70 °FLight rain. Mostly cloudy.3 mph88%29.89 "Hg2 mi
11:00 PM
Aug 22
70 °FLight rain. Mostly cloudy.3 mph88%29.89 "Hg4 mi
10:00 PM68 °FLight rain. Mostly cloudy.3 mph94%29.89 "Hg4 mi
9:00 PM70 °FLight rain. Mostly cloudy.6 mph88%29.86 "Hg4 mi
8:00 PM70 °FPartly cloudy.3 mph88%29.86 "Hg4 mi
7:00 PM70 °FLight rain. Fog.3 mph88%29.83 "Hg2 mi
Weather by CustomWeather, © 2014

See weather overviewHow to use our weather pages